Date,TemperatureHighF,TemperatureAvgF,TemperatureLowF,DewpointHighF,DewpointAvgF,DewpointLowF,HumidityHigh,HumidityAvg,HumidityLow,PressureMaxIn,PressureMinIn,WindSpeedMaxMPH,WindSpeedAvgMPH,GustSpeedMaxMPH,PrecipitationSumIn
2013-3-1,43.7,39.3,34.3,16.3,7.2,-0.7,43,27,18,29.65,29.50,10,2,10,0.00
2013-3-2,39.0,34.9,31.8,5.7,-1.0,-4.7,32,21,16,29.68,29.56,11,3,11,0.00
2013-3-3,36.5,32.3,27.7,6.8,-1.5,-5.3,34,23,17,29.65,29.56,12,4,12,0.00
2013-3-4,39.2,31.8,27.5,0.0,-5.3,-7.4,23,20,16,29.83,29.65,13,4,13,0.00
2013-3-5,48.2,36.2,28.6,8.3,1.7,-4.5,31,23,15,29.85,29.71,10,2,10,0.00
2013-3-6,40.3,37.8,34.5,25.8,17.1,7.2,60,44,29,29.80,29.56,13,4,14,0.00
2013-3-7,49.5,40.1,34.9,8.6,2.9,-4.7,31,21,14,29.91,29.80,12,4,15,0.00
2013-3-8,49.3,39.2,32.7,5.3,-1.5,-6.4,23,17,14,30.06,29.88,17,5,19,0.00
2013-3-9,63.5,44.7,32.0,12.6,1.0,-6.7,20,16,13,30.12,30.03,8,1,8,0.00
2013-3-10,62.1,44.4,26.8,12.3,4.3,-5.9,37,20,13,30.12,30.03,10,2,10,0.00
2013-3-11,57.4,47.6,36.9,35.3,24.6,2.3,60,42,19,30.06,29.77,10,2,10,0.00
2013-3-12,56.3,51.0,41.9,52.2,34.3,9.5,86,56,26,29.77,29.53,13,4,13,0.00
2013-3-13,48.6,39.3,29.7,15.7,5.3,-5.7,44,25,14,29.80,29.68,13,3,13,0.00
2013-3-14,43.2,35.5,28.9,-0.4,-4.4,-7.4,23,18,15,29.85,29.77,16,5,17,0.00
2013-3-15,54.5,39.3,23.9,8.4,-1.7,-12.4,21,17,14,29.85,29.56,15,3,17,0.00
2013-3-16,46.0,36.9,32.5,22.0,11.1,-2.0,63,39,17,29.74,29.56,8,1,8,0.00
2013-3-17,39.9,34.4,30.2,22.8,10.6,-4.1,64,41,18,30.09,29.74,6,1,8,0.00
2013-3-18,36.3,32.3,28.4,23.3,5.5,-6.4,66,34,17,30.12,29.71,9,1,10,0.00
2013-3-19,53.8,40.5,33.6,33.3,16.5,-5.3,78,46,13,29.71,29.50,13,3,15,0.00
2013-3-20,47.5,38.8,29.1,1.1,-3.3,-9.1,20,16,14,29.77,29.56,15,3,16,0.00
2013-3-21,37.6,32.7,27.3,-3.6,-6.6,-10.6,18,18,16,29.65,29.53,12,3,13,0.00
2013-3-22,31.5,27.1,25.2,6.7,-5.1,-11.0,40,24,18,29.68,29.62,8,2,8,0.00
2013-3-24,47.1,42.5,27.7,7.1,0.1,-3.7,33,17,14,29.80,29.47,9,1,9,0.00
2013-3-25,38.1,35.5,32.5,25.6,16.1,-0.9,70,48,19,29.50,29.32,8,1,9,0.00
2013-3-26,52.9,40.6,33.3,26.4,15.8,0.4,72,43,13,29.77,29.47,10,2,10,0.00
2013-3-27,51.6,42.0,35.4,12.4,5.5,-0.7,37,23,14,29.85,29.74,15,4,19,0.00
2013-3-28,51.3,41.7,30.6,14.0,4.3,-1.7,40,22,14,30.00,29.83,12,2,12,0.00
2013-3-29,55.0,45.8,35.4,8.4,3.3,-4.7,23,17,13,30.00,29.91,10,2,10,0.00
2013-3-30,60.4,44.0,27.3,15.2,5.4,-4.7,40,22,13,30.00,29.88,9,1,12,0.00
2013-3-31,54.1,43.7,31.5,38.6,15.4,-5.5,71,35,15,29.91,29.53,13,1,13,0.00